Regional Weather Roundup
Issued by NWS

Home | Current Version | Previous Version | Graphics & Text | Print | Product List | Glossary On
Versions: 1 2 3 4 5 6 7 8 9 10 11 12 13 14 15 16 17 18 19 20 21 22 23 24 25 26 27 28 29 30 31 32 33 34 35 36 37 38 39 40 41 42 43 44 45 46 47 48 49 50
483
ASUS43 KDTX 121201
RWRMI
MICHIGAN HOURLY REGIONAL WEATHER ROUNDUP
NATIONAL WEATHER SERVICE DETROIT/PONTIAC MI
700 AM EST FRI FEB 12 2016

NOTE: "FAIR" INDICATES FEW OR NO CLOUDS BELOW 12,000 FEET WITH NO
SIGNIFICANT WEATHER AND/OR OBSTRUCTION TO VISIBILITY.

MIZ047>049-052>055-059>063-066>070-074>076-081>083-121300-
SOUTHEAST LOWER MICHIGAN

CITY           SKY/WX    TMP DP  RH WIND       PRES   REMARKS
ADRIAN         CLOUDY    15   9  76 SW8       30.12F WCI   4
6HR MIN TEMP:   9; 6HR MAX TEMP:  15;

ALMA           CLOUDY    19  12  73 SW8       30.02F WCI   9
ANN ARBOR      CLOUDY    15   8  73 SW8       30.09F WCI   4
BAD AXE        CLOUDY    15   8  76 SW10      29.99F WCI   2
CARO           CLOUDY    14   9  79 SW8       30.02F WCI   3
DETROIT CITY   CLOUDY    16   6  65 SW12      30.10F WCI   3
6HR MIN TEMP:  12; 6HR MAX TEMP:  16;

DETROIT        CLOUDY    16   7  67 SW12      30.12F WCI   3
6HR MIN TEMP:  11; 6HR MAX TEMP:  16;

FLINT          CLOUDY    16   6  65 SW9       30.04F WCI   4
6HR MIN TEMP:  10; 6HR MAX TEMP:  16;

GROSSE ILE     CLOUDY    18   9  68 SW8       30.11S WCI   7
HILLSDALE      CLOUDY    15   5  65 SW7       30.07F WCI   5
6HR MIN TEMP:  11; 6HR MAX TEMP:  15;

HOWELL         CLOUDY    14   8  78 SW8       30.05F WCI   3

CITY           SKY/WX    TMP DP  RH WIND       PRES   REMARKS
JACKSON        CLOUDY    16   6  65 SW12      30.07F WCI   3
6HR MIN TEMP:  11; 6HR MAX TEMP:  16;

LAMBERTVILLE   CLOUDY    15   9  78 SW6       30.14F WCI   6
6HR MIN TEMP:  13; 6HR MAX TEMP:  15;

LANSING        CLOUDY    17   8  67 SW13      30.05F WCI   4
6HR MIN TEMP:  13; 6HR MAX TEMP:  17;

LAPEER         CLOUDY    14   8  78 SW9       30.03F WCI   2
6HR MIN TEMP:   4; 6HR MAX TEMP:  14;

MASON          CLOUDY    16   9  73 SW8       30.06F WCI   5
MONROE         CLOUDY    17   9  71 SW7       30.12F WCI   7
6HR MIN TEMP:  11; 6HR MAX TEMP:  17;

MT. CLEMENS    CLOUDY    15   7  70 SW13      30.07F WCI   1
6HR MIN TEMP:  12; 6HR MAX TEMP:  15;

PONTIAC        CLOUDY    12   6  77 SW8       30.04F WCI   0
6HR MIN TEMP:   5; 6HR MAX TEMP:  12;

PORT HOPE        N/A     14   7  73 SW9G18    29.97F WCI   2
6HR MIN TEMP:  12; 6HR MAX TEMP:  14;

PORT HURON     CLOUDY    14   9  79 SW6       30.06F WCI   5
TRI CITIES     CLOUDY    18  10  71 SW10      30.02F WCI   6
6HR MIN TEMP:  12; 6HR MAX TEMP:  18;

MIDLAND        CLOUDY    19  10  69 SW7       30.00F WCI   9
6HR MIN TEMP:  12; 6HR MAX TEMP:  19;

TROY           CLOUDY    15   8  75 SW7       30.10S WCI   5
SAGINAW HB     CLOUDY    18  12  79 SW10      30.02F WCI   6
$$
MIZ043>046-050>051-056>058-064>065-071>073-077>080-121300-
SOUTHWEST LOWER MICHIGAN

CITY           SKY/WX    TMP DP  RH WIND       PRES   REMARKS
BATTLE CREEK   CLOUDY    16   8  71 SW13      30.08F WCI   2
6HR MIN TEMP:   9; 6HR MAX TEMP:  16;

BENTON HARBOR  CLOUDY    23  12  62 W13G25    30.11F WCI  11
6HR MIN TEMP:  13; 6HR MAX TEMP:  23;

BIG RAPIDS     CLOUDY    18  10  71 W7        29.98F WCI   8
6HR MIN TEMP:  14; 6HR MAX TEMP:  18;

COLDWATER      CLOUDY    17   8  69 SW8       30.10F WCI   6
6HR MIN TEMP:   6; 6HR MAX TEMP:  17;

FREMONT        CLOUDY    20   9  62 NW14      30.03S WCI   6
HOLLAND        CLOUDY    23  11  60 W14G22    30.07F WCI  11
6HR MIN TEMP:  21; 6HR MAX TEMP:  23;

GRAND RAPIDS   CLOUDY    19  11  70 SW10      30.04F WCI   7
6HR MIN TEMP:  15; 6HR MAX TEMP:  20;

IONIA          CLOUDY    18  11  72 SW10      30.03F WCI   7
6HR MIN TEMP:  14; 6HR MAX TEMP:  18;

KALAMAZOO      CLOUDY    16   7  67 SW9       30.09F WCI   4
6HR MIN TEMP:   9; 6HR MAX TEMP:  16;

LUDINGTON      CLOUDY    19   9  63 NW13      30.04S WCI   7
6HR MIN TEMP:  19; 6HR MAX TEMP:  22;

MARSHALL       CLOUDY    16   8  68 SW8       30.07F WCI   6
6HR MIN TEMP:  12; 6HR MAX TEMP:  16;

MOUNT PLEASANT CLOUDY    20  11  66 W7        30.00F WCI  11
6HR MIN TEMP:  16; 6HR MAX TEMP:  20;

MUSKEGON       CLOUDY    22   7  52 W14G22    30.06F WCI   9
6HR MIN TEMP:  22; 6HR MAX TEMP:  24;

SOUTH HAVEN    CLOUDY    24  11  59 W9G22     30.09F WCI  14
$$
MIZ016>042-121300-
NORTHERN LOWER MICHIGAN

CITY           SKY/WX    TMP DP  RH WIND       PRES   REMARKS
ALPENA         LGT SNOW  15   9  76 SW6       29.91F WCI   6
6HR MIN TEMP:  12; 6HR MAX TEMP:  16; 6HR PCP: TRACE;

BEAVER ISLAND  MOCLDY    16   7  65 W15G26    29.94S WCI   2
6HR MIN TEMP:  16; 6HR MAX TEMP:  19;

BELLAIRE       FLURRIES  20   9  62 NW17G24   29.96F WCI   5
6HR MIN TEMP:  16; 6HR MAX TEMP:  21;

CADILLAC       FLURRIES  15   8  74 W6        29.93S WCI   6
CHARLEVOIX     CLOUDY    19   7  58 W22G28    29.96F WCI   2
FRANKFORT      CLOUDY    19   6  59 NW14G22   30.01S WCI   5
GAYLORD        SNOW      15  11  83 W6        29.87F VSB 1/2 WCI   6
6HR MIN TEMP:  13; 6HR MAX TEMP:  15; 6HR PCP:  0.02;

GRAYLING       LGT SNOW  14  10  83 SW6       29.92F WCI   5
6HR MIN TEMP:  11; 6HR MAX TEMP:  15;

HARBOR SPRINGS FLURRIES  17   5  57 W14G21    29.92S WCI   3
HOUGHTON LAKE  CLOUDY    15   8  73 W10       29.94F WCI   2
6HR MIN TEMP:  11; 6HR MAX TEMP:  15; 6HR PCP: TRACE;

MANISTEE       CLOUDY    19   3  49 W18G24    30.02S WCI   4
OSCODA         CLOUDY    15   8  73 SW12      29.95F WCI   1
6HR MIN TEMP:  12; 6HR MAX TEMP:  15;

PELLSTON       CLOUDY    16   6  65 NW16G24   29.91F WCI   1
6HR MIN TEMP:  16; 6HR MAX TEMP:  20; 6HR PCP: TRACE;

ROGERS CITY    MOCLDY    14   9  81 W8        29.91S WCI   3
TRAVERSE CITY  FLURRIES  19   8  62 W13       29.97F WCI   6
6HR MIN TEMP:  17; 6HR MAX TEMP:  20; 6HR PCP: TRACE;

$$
MIZ007>008-015-121300-
EASTERN UPPER MICHIGAN

CITY           SKY/WX    TMP DP  RH WIND       PRES   REMARKS
KINROSS        CLOUDY    10  10 100 W3        29.86F
6HR MIN TEMP:  10; 6HR MAX TEMP:  16;

MACKINAC ISLAN CLEAR     14   9  81 W20G25    29.88F WCI  -4
6HR MIN TEMP:  14; 6HR MAX TEMP:  19; 6HR PCP:  0.01;

NEWBERRY       LGT SNOW   9   6  89 SW13      29.87F WCI  -6
6HR MIN TEMP:   8; 6HR MAX TEMP:  11;

S. S. MARIE    LGT SNOW  10   5  80 NE5       29.87S WCI   2
6HR MIN TEMP:  10; 6HR MAX TEMP:  16; 6HR PCP:  0.05;

$$
MIZ004>006-011>014-085-121300-
CENTRAL UPPER MICHIGAN

CITY           SKY/WX    TMP DP  RH WIND       PRES   REMARKS
MANISTIQUE     MOCLDY     9   1  69 W10       29.95F WCI  -6
6HR MIN TEMP:   8; 6HR MAX TEMP:  14;

ESCANABA       CLEAR      7  -2  66 W5        30.01S WCI  -2
6HR MIN TEMP:   7; 6HR MAX TEMP:  16;

MENOMINEE      CLEAR     10   0  61 W8        30.04S WCI  -1
6HR MIN TEMP:  10; 6HR MAX TEMP:  16;

SAWYER-GWINN   FLURRIES   0  -2  92 W6        29.93F WCI -12
$$
MIZ001>003-009>011-084-121300-
WESTERN UPPER MICHIGAN

CITY           SKY/WX    TMP DP  RH WIND       PRES   REMARKS
IRON MOUNTAIN  CLEAR      8  -1  66 W9        29.97S WCI  -5
6HR MIN TEMP:   8; 6HR MAX TEMP:  13;

HOUGHTON       LGT SNOW   9   4  80 NW17G24   29.97R VSB 3/4 WCI  -9
6HR MIN TEMP:   9; 6HR MAX TEMP:  13; 6HR PCP: TRACE;

COPPER HARBOR    N/A     13   9  84 N26G38    29.99R WCI  -7
6HR MIN TEMP:  13; 6HR MAX TEMP:  17;

IRONWOOD       CLOUDY     9   1  72 NW14G20   30.05R WCI  -8
6HR MIN TEMP:   9; 6HR MAX TEMP:  10;

$$

ABBREVIATIONS USED IN REMARKS
   TC - TEMPERATURE IN CELSIUS
  WCI - WIND CHILL INDEX
   HX - HEAT INDEX
  VSB - VISIBILITY





USA.gov is the U.S. government's official web portal to all federal, state and local government web resources and services.